Probability
0 0 0 0 0 0 0 0 0 0 0 0 0 0 0 0 0 0 0 0 0 0 0 1 2 3 3 3 4 5 5 4 3 2 1 1 1 0 0 0 0 0 0
0 0 0 0 0 0 0 0 0 0 0 0 0 0 0 0 0 0 0 0 0 0 0 0 1 2 3 3 3 4 4 4 3 3 2 2 2 1 0 0 0 0 0
0 0 0 0 0 0 0 0 0 0 0 0 0 0 0 0 0 0 0 0 0 0 0 0 0 1 2 3 3 3 3 4 3 3 3 3 3 2 0 0 0 0 0
0 0 0 0 0 0 0 0 0 0 0 0 0 0 0 0 0 0 0 0 0 0 0 0 0 0 1 2 3 3 3 3 3 3 3 3 3 1 0 0 0 0 0
0 0 0 0 0 0 0 0 0 0 0 0 0 0 0 0 0 0 0 0 0 0 0 0 0 0 0 1 2 2 3 3 3 3 3 3 3 1 0 0 0 0 0
0 0 0 0 0 0 0 0 0 0 0 0 0 0 0 0 0 0 0 0 0 0 0 0 0 0 0 0 1 1 1 2 3 3 3 3 3 2 1 0 0 0 0
0 0 0 0 0 0 0 0 0 0 0 0 0 0 0 0 0 0 0 0 0 0 0 0 0 0 0 0 0 0 0 1 2 3 3 3 3 2 1 0 0 0 0
0 0 0 0 0 0 0 0 0 0 0 0 0 0 0 0 0 0 0 0 0 0 0 0 0 0 0 0 0 0 0 0 1 2 2 2 2 2 1 0 0 0 0
0 0 0 0 0 0 0 0 0 0 0 0 0 0 0 0 0 0 0 0 0 0 0 0 0 0 0 0 0 0 0 0 0 1 1 1 1 1 0 0 0 0 0
0 0 0 0 0 0 0 0 0 0 0 0 0 0 0 0 0 0 0 0 0 0 0 0 0 0 0 0 0 0 0 0 0 0 0 0 0 0 0 0 0 0 0
0 0 0 0 0 0 0 0 0 0 0 0 0 0 0 0 0 0 0 0 0 0 0 0 0 0 0 0 0 0 0 0 0 0 0 0 0 0 0 0 0 0 0
0 0 0 0 0 0 0 0 0 0 0 0 0 0 0 0 0 0 0 0 0 0 0 0 0 0 0 0 0 0 0 0 0 0 0 0 0 0 0 0 0 0 0
0 0 0 0 0 0 0 0 0 0 0 0 0 0 0 0 0 0 0 0 0 0 0 0 0 0 0 0 0 0 0 0 0 0 0 0 0 0 0 0 0 0 0
0 0 0 0 0 0 0 0 0 0 0 0 0 0 0 0 0 0 0 0 0 0 0 0 0 0 0 0 0 0 0 0 0 0 0 0 0 0 0 0 0 0 0
0 0 0 0 0 0 0 0 0 0 0 0 0 0 0 0 0 0 0 0 0 0 0 0 0 0 0 0 0 0 0 0 0 0 0 0 0 0 0 0 0 0 0
0 0 0 0 0 0 0 0 0 0 0 0 0 0 0 0 0 0 0 0 0 0 0 0 0 0 0 0 0 0 0 0 0 0 0 0 0 0 0 0 0 0 0
0 0 0 0 0 0 0 0 0 0 0 0 0 0 0 0 0 0 0 0 0 0 0 0 0 0 0 0 0 0 0 0 0 0 0 0 0 0 0 0 0 0 0
0 0 0 0 0 0 0 0 0 0 0 0 0 0 0 0 0 0 0 0 0 0 0 0 0 0 0 0 0 0 0 0 0 0 0 0 0 0 0 0 0 0 0
0 0 0 0 0 0 0 0 0 0 0 0 0 0 0 0 0 0 0 0 0 0 0 0 0 0 0 0 0 0 0 0 0 0 0 0 0 0 0 0 0 0 0
0 0 0 0 0 0 0 0 0 0 0 0 0 0 0 0 0 0 0 0 0 0 0 0 0 0 0 0 0 0 0 0 0 0 0 0 0 0 0 0 0 0 0
0 0 0 0 0 0 0 0 0 0 0 0 0 0 0 0 0 0 0 0 0 0 0 0 0 0 0 0 0 0 0 0 0 0 0 0 0 0 0 0 0 0 0
0 0 0 0 0 0 0 0 0 0 0 0 0 0 0 0 0 0 0 0 0 0 0 0 0 0 0 0 0 0 0 0 0 0 0 0 0 0 0 0 0 0 0
0 0 0 0 0 0 0 0 0 0 0 0 0 0 0 0 0 0 0 0 0 0 0 0 0 0 0 0 0 0 0 0 0 0 0 0 0 0 0 0 0 0 0
0 0 0 0 0 0 0 0 0 0 0 0 0 0 0 0 0 0 0 0 0 0 0 0 0 0 0 0 0 0 0 0 0 0 0 0 0 0 0 0 0 0 0
0 0 0 0 0 0 0 0 0 0 0 0 0 0 0 0 0 0 0 0 0 0 0 0 0 0 0 0 0 0 0 0 0 0 0 0 0 0 0 0 0 0 0
0 0 0 0 0 0 0 0 0 0 0 0 0 0 0 0 0 0 0 0 0 0 0 0 0 0 0 0 0 0 0 0 0 0 0 0 0 0 0 0 0 0 0
Wind_Speed
1 1 1 1 1 2 2 3 3 4 4 4 5 6 6 7 7 7 8 8 9 9 9 10 11 11 9 8 8 9 9 10 14 11 7 7 8 9 8 8 9 9 8
1 1 1 1 1 1 2 2 3 3 3 3 4 4 5 5 6 6 8 8 9 9 9 9 11 9 11 9 9 10 10 10 12 15 10 7 9 9 9 8 7 6 8
1 1 1 1 1 1 1 2 2 2 2 2 2 3 4 4 5 5 6 7 7 8 9 9 10 10 11 9 10 10 9 9 10 11 12 7 6 5 7 7 7 7 7
0 0 0 1 1 1 1 1 1 2 2 2 2 3 3 4 4 4 5 6 7 7 8 9 9 10 11 11 9 10 9 10 10 10 10 8 6 4 4 6 7 6 6
1 0 0 1 1 2 2 2 2 2 2 2 2 3 3 3 3 4 5 6 7 7 8 8 8 9 9 9 8 8 9 9 8 9 9 8 7 4 5 5 7 7 6
1 1 0 1 1 2 2 2 2 2 2 2 2 3 3 3 4 5 5 5 6 7 7 7 7 7 8 9 10 10 11 11 11 9 9 10 10 7 6 5 6 6 7
2 1 0 0 1 1 2 2 2 3 3 3 3 3 3 4 5 5 5 5 5 6 7 7 6 6 7 8 8 9 10 11 12 12 12 12 10 8 7 7 6 7 8
2 1 0 0 0 1 1 2 2 3 3 3 3 3 4 4 5 6 6 5 5 5 6 7 7 8 7 8 9 9 9 8 9 9 11 12 10 9 7 8 9 7 6
1 1 1 1 1 1 1 2 2 3 3 3 3 4 4 5 5 6 6 4 4 5 6 6 7 8 9 10 9 10 10 9 7 9 11 13 13 13 9 6 5 4 7
1 1 1 2 2 2 2 2 2 2 3 3 3 4 4 5 6 7 7 4 4 5 5 5 6 7 10 10 9 9 11 10 8 8 8 9 9 9 9 7 6 6 5
1 1 1 2 2 2 2 2 2 2 2 3 3 4 4 4 6 7 7 4 4 5 6 5 5 8 11 12 11 9 11 10 8 8 8 7 6 6 5 5 5 5 6
1 1 1 2 2 1 1 2 2 2 2 2 3 4 3 3 4 6 8 7 7 6 6 6 7 11 13 13 11 10 11 10 6 5 6 6 6 6 5 4 4 4 5
1 1 2 2 2 2 1 1 1 1 2 2 3 3 4 4 4 7 7 8 9 6 6 9 12 13 12 9 9 10 8 5 5 5 6 6 6 6 5 4 4 3 3
1 1 1 1 2 2 1 1 1 2 2 2 3 3 4 5 5 5 5 6 6 6 6 8 10 11 9 8 7 6 4 5 5 6 6 6 5 5 5 4 4 3 4
1 1 1 1 1 2 2 2 2 3 3 4 4 4 4 5 6 10 9 7 6 6 7 6 6 5 5 5 5 5 5 5 5 5 6 6 6 5 5 4 4 4 4
1 1 1 1 1 1 2 2 2 4 5 6 7 7 5 7 11 12 12 11 12 11 7 5 6 6 6 6 6 6 6 6 6 6 6 6 6 6 6 5 4 4 5
1 1 1 1 1 1 2 2 3 3 4 4 6 7 8 9 10 11 11 11 10 9 5 4 5 5 6 6 6 7 7 7 6 6 7 6 6 6 6 6 5 5 5
1 1 1 2 2 2 2 2 3 3 4 4 4 7 9 10 10 10 10 8 5 5 4 4 5 5 6 6 6 7 7 7 6 6 7 6 6 6 6 6 5 5 5
1 1 1 1 2 2 2 2 3 3 4 4 4 5 6 9 9 8 8 4 4 4 4 5 5 5 6 6 6 6 7 7 7 7 6 7 6 6 6 6 6 6 5
1 1 1 2 2 2 2 2 3 3 3 4 4 4 5 5 4 5 5 4 4 5 5 5 5 6 6 6 6 6 6 7 7 6 6 6 6 6 7 7 6 5 5
1 1 2 2 2 2 2 3 3 3 3 4 4 5 8 5 5 5 5 5 5 5 6 6 6 6 6 6 6 7 8 7 7 6 6 6 6 6 6 6 6 5 4
1 2 2 2 2 2 2 3 3 3 4 5 5 5 8 5 5 5 5 5 5 5 6 6 6 6 6 6 7 7 7 7 7 6 6 6 6 6 6 6 5 4 4
2 2 2 2 2 2 3 3 3 3 4 4 5 5 5 5 5 5 6 6 6 6 6 6 7 7 6 6 7 7 8 8 7 7 7 7 7 6 6 6 6 5 4
2 2 2 2 2 2 3 3 3 4 4 4 5 5 5 5 6 7 6 6 6 6 6 6 7 9 11 9 7 7 7 8 8 7 9 8 8 7 6 6 6 5 4
2 2 2 2 2 3 3 3 4 4 4 4 5 5 5 6 6 6 6 6 7 7 8 8 7 8 10 12 11 10 11 11 10 8 7 7 8 8 7 7 6 5 4
2 2 2 2 2 3 3 4 4 4 4 5 5 5 6 6 6 6 6 6 7 7 8 7 9 10 12 11 12 13 12 12 11 10 7 6 7 7 6 5 6 5 5
Wind_Direction
279 260 245 258 259 249 247 255 260 262 264 263 262 257 256 256 254 252 252 254 254 257 256 256 257 258 259 256 253 252 253 255 267 274 268 268 262 261 259 254 254 254 253
304 282 277 283 270 256 264 275 276 273 273 270 269 267 266 265 263 260 261 260 261 262 264 265 266 268 267 266 263 260 259 256 264 275 277 269 263 264 267 264 256 251 254
312 307 337 350 345 308 303 307 307 299 300 302 292 281 280 277 275 271 271 272 270 270 271 271 272 273 271 271 271 271 270 268 264 271 277 274 270 271 272 273 271 263 260
270 261 335 331 328 325 330 335 340 330 320 319 312 303 297 292 290 290 286 282 280 279 279 276 277 275 276 277 275 274 277 277 274 271 275 277 274 278 273 274 277 268 263
212 154 338 347 356 4 4 360 0 356 342 334 331 328 322 313 319 319 309 295 290 287 284 283 282 284 283 281 279 280 281 277 276 275 277 280 276 278 266 267 269 277 273
192 188 40 20 22 14 4 0 2 357 348 345 339 332 329 329 344 335 319 303 298 294 293 292 291 287 289 283 277 276 275 275 276 274 274 274 278 274 272 265 269 277 275
186 181 144 52 25 2 0 2 355 343 338 335 332 329 320 325 336 331 322 305 296 293 295 296 297 302 301 299 296 288 279 271 267 271 276 275 281 279 276 269 261 260 264
180 175 199 265 349 353 357 352 341 331 322 321 318 316 314 319 328 326 319 303 297 297 296 296 298 301 308 310 304 297 291 286 282 276 277 282 285 287 276 268 266 268 278
190 216 253 263 271 299 316 325 325 317 315 318 313 311 309 313 330 331 329 311 302 301 302 303 302 300 311 314 303 298 296 295 295 285 283 286 290 287 282 278 271 272 278
223 267 282 274 259 264 283 297 303 306 310 313 310 309 308 309 324 329 327 311 305 306 306 303 298 296 306 311 303 297 293 297 303 304 299 295 292 290 278 260 252 255 270
311 308 300 293 292 288 301 304 305 311 312 307 306 307 307 310 319 326 326 315 308 304 300 300 302 306 304 304 299 289 288 296 297 294 294 294 295 292 288 279 265 253 258
11 323 308 312 313 319 324 316 319 317 312 311 313 313 317 321 321 325 325 318 312 298 295 297 301 307 306 302 298 293 295 297 290 290 291 292 295 296 297 294 283 275 270
56 329 317 324 331 333 322 314 312 311 303 303 306 309 315 319 319 323 321 318 314 305 299 301 303 304 304 302 301 300 298 293 290 289 288 290 292 292 295 294 291 287 291
150 276 303 317 326 339 323 307 299 297 300 302 303 305 308 310 318 328 325 319 315 309 303 300 300 301 300 301 303 304 298 293 291 290 293 295 296 294 292 295 295 295 297
198 219 271 292 306 316 315 309 301 293 293 295 296 299 301 303 317 324 320 316 318 313 309 303 304 308 310 312 312 312 309 306 300 298 297 298 298 296 296 294 287 284 278
195 233 265 275 290 297 307 316 321 306 315 313 311 309 306 309 317 319 318 319 322 319 312 303 306 309 310 312 313 312 311 310 307 302 297 294 296 297 298 299 290 279 276
218 240 264 275 279 289 297 300 308 320 314 313 317 321 319 320 322 324 323 322 324 325 310 302 304 308 310 311 310 308 307 308 306 300 297 295 295 295 295 295 293 286 281
237 245 257 267 275 276 276 279 282 293 304 309 320 324 327 325 326 331 332 329 328 338 320 310 308 308 307 306 305 305 305 306 305 302 299 297 295 293 290 289 286 285 285
250 251 265 274 274 274 274 277 280 283 288 299 309 318 331 326 325 332 339 333 320 317 314 309 307 306 304 301 300 301 301 300 301 301 300 301 299 296 291 288 285 284 283
247 249 260 261 266 270 271 272 278 283 288 291 296 307 319 320 318 323 327 318 309 305 306 305 305 303 301 300 299 299 298 297 298 297 298 299 298 296 293 292 288 284 284
253 247 243 251 253 260 265 269 274 278 283 288 290 297 308 305 300 303 305 305 303 302 302 302 301 299 297 297 297 297 296 294 294 295 296 295 294 293 294 292 288 284 282
256 254 255 257 262 266 275 279 280 281 283 285 292 300 306 301 294 294 295 298 300 298 297 295 292 292 292 292 293 294 292 291 291 292 293 293 291 290 289 287 284 281 272
255 256 260 262 264 268 271 272 274 278 282 285 291 296 297 297 298 296 298 301 302 299 297 294 292 292 290 288 286 284 283 284 285 286 288 289 287 285 284 282 280 275 269
255 254 257 264 267 268 271 277 278 279 282 286 288 290 292 295 297 298 300 299 298 295 294 292 289 289 291 293 289 285 281 282 282 278 277 276 281 282 280 276 274 266 261
268 264 263 267 271 273 275 277 278 280 282 284 288 290 293 295 296 298 300 299 297 293 294 294 290 290 291 292 291 289 288 287 285 281 277 274 273 273 271 270 267 262 259
281 277 275 275 271 270 272 275 278 283 284 285 286 288 291 293 294 296 299 299 298 296 295 292 291 292 293 293 291 292 291 288 286 281 276 273 271 267 264 261 259 254 251